Back to catalog

KUIPER-00138

AliveCommunicationsLEO
NORAD 65964·PAYLOAD·🇺🇸 United States

Launched Oct 14, 2025 from Cape Canaveral Space Force Station

Loading…

Next Passes (next 24 hours)

TLE

FreshSource: CelesTrak SupGP

Epoch: Sep 14, 2026, 11:49 UTC

1 65964C 25228T   26257.49259259  .00003999  00000+0  52346-3 0  2575
2 65964  51.8971 228.1765 0000803  59.1631 294.0817 14.79929911    14

Track KUIPER-00138 in real time with AllMySat

Download on the App Store